Location: Byszew
(52.1813°N, 19.2693°E)
Time: 19:12:46
(UTC+00:00)

Cosmos 2322 Rocket - Pass Details

Date: 03 March 2021
Orbit: 832 x 852 km, 71.0° (Epoch: 17 April)

Event Time Altitude Azimuth Distance (km) Brightness Sun altitude
Rises 17:25:11 0° 196° (SSW) 3,364 5.5 -9.8°
Reaches altitude 10° 17:27:38 10° 193° (SSW) 2,435 4.7 -10.2°
Maximum altitude 17:33:07 61° 114° (ESE) 945 2.2 -11.0°
Drops below altitude 10° 17:38:39 10° 36° (NE) 2,458 4.3 -11.9°
Sets 17:41:08 0° 33° (NNE) 3,399 5.1 -12.3°
